Location: Betpouey
(42.8833°N, 0.0333°E)
Time: 06:11:16
(UTC+00:00)

Meteor 2-13 Rocket - Pass Details

Date: 26 June 2021
Orbit: 935 x 958 km, 82.5° (Epoch: 26 July)

Event Time Altitude Azimuth Distance (km) Brightness Sun altitude
Exits shadow 22:52:26 24° 110° (ESE) 1,860 5.6 -21.8°
Maximum altitude 22:54:01 27° 86° (E) 1,747 5.7 -21.9°
Drops below altitude 10° 22:59:03 10° 31° (NNE) 2,697 7.4 -22.2°
Sets 23:01:54 0° 20° (NNE) 3,645 8.4 -22.3°
